Retour au catalogue

STARLINK-36899

ActifCommunicationsVLEO
NORAD 68058·PAYLOAD·🇺🇸 United States

Lancé Mar 2, 2026 depuis Vandenberg Space Force Base

Loading…

Prochains Passages (prochaines 24 heures)

TLE

FraisSource: CelesTrak SupGP

Époque: Sep 14, 2026, 22:37 UTC

1 68058C 26041U   26257.94284722  .00038931  00000+0  11530-2 0  2572
2 68058  53.1573 247.3393 0001751  96.5126 237.7034 15.34295087    18

Suivez STARLINK-36899 en temps réel avec AllMySat

Download on the App Store